[Iaude] MPEC M67: 2022 MS1 [a=1.43,e=0.65,i=23.7,H=21.0]

mpec at marsden.cfa.harvard.edu mpec at marsden.cfa.harvard.edu
Fri Jun 24 21:02:19 EDT 2022


M.P.E.C. 2022-M67                                 Issued 2022 June 25, 01:01 UT

     The Minor Planet Electronic Circulars contain information on unusual
         minor planets and routine data on comets.  They are published
    on behalf of Division F of the International Astronomical Union by the
          Minor Planet Center, Smithsonian Astrophysical Observatory,
                          Cambridge, MA 02138, U.S.A.

             Prepared using the Tamkin Foundation Computer Network

                              MPC at CFA.HARVARD.EDU
            URL https://www.minorplanetcenter.net/    ISSN 1523-6714

                                    2022 MS1                                    


Observations:
     K22M01S* C2022 06 20.24916216 10 28.967+54 20 07.62         21.60GVEM067G96
     K22M01S  C2022 06 20.25487816 10 29.262+54 19 40.22               VEM067G96
     K22M01S  C2022 06 20.26058716 10 29.528+54 19 13.33               VEM067G96
     K22M01S  C2022 06 20.26629816 10 29.903+54 18 45.94         21.77GVEM067G96
     K22M01S KC2022 06 20.37974416 10 35.630+54 09 42.20         21.58GVEM067I52
     K22M01S KC2022 06 20.38742816 10 36.080+54 09 04.80         21.40GVEM067I52
     K22M01S KC2022 06 20.39511216 10 36.460+54 08 27.60         21.11GVEM067I52
     K22M01S KC2022 06 21.14346816 11 23.27 +53 10 12.2          21.4 VuEM067H21
     K22M01S KC2022 06 21.15604916 11 23.83 +53 09 14.1          21.2 VuEM067H21
     K22M01S KC2022 06 21.16201616 11 24.19 +53 08 46.8          21.3 VuEM067H21
     K22M01S KC2022 06 21.30507116 11 31.538+52 57 49.72         22.41GVEM067I52
     K22M01S KC2022 06 21.30813816 11 31.664+52 57 36.04         21.44GVEM067I52
     K22M01S KC2022 06 21.31120516 11 31.834+52 57 22.39         20.95GVEM067I52
     K22M01S KC2022 06 21.31427316 11 31.927+52 57 06.80         21.40GVEM067I52
     K22M01S KC2022 06 23.14888416 13 13.05 +50 41 02.7          21.6 VuEM067H21
     K22M01S KC2022 06 23.15727316 13 13.45 +50 40 26.7          21.5 VuEM067H21
     K22M01S KC2022 06 23.16566116 13 13.75 +50 39 50.8          21.6 VuEM067H21
     K22M01S KC2022 06 23.27227416 13 18.793+50 32 12.91         21.49GVEM067I52
     K22M01S KC2022 06 23.27610616 13 18.937+50 31 56.57         21.38GVEM067I52

Observer details:
G96 Mt. Lemmon Survey.  Observer A. Serrano.  Measurers E. J. Christensen, D.
    Fay, J. B. Fazekas, D. C. Fuls, A. R. Gibbs, A. D. Grauer, H. Groeller, J.
    K. Hogan, R. A. Kowalski, S. M. Larson, G. J. Leonard, D. Rankin, R. L.
    Seaman, A. Serrano, F. C. Shelly, K. W. Wierzchos.  1.5-m reflector + 10K
    CCD.
H21 Astronomical Research Observatory, Westfield.  Observer R. Holmes.
    Measurers T. Linder, R. Holmes, L. Horn.  0.76-m f/3.0 astrograph + CCD.
I52 Steward Observatory, Mt. Lemmon Station.  Observer R. A. Kowalski.
    Measurers E. J. Christensen, D. Fay, J. B. Fazekas, D. C. Fuls, A. R.
    Gibbs, A. D. Grauer, H. Groeller, J. K. Hogan, R. A. Kowalski, S. M.
    Larson, G. J. Leonard, D. Rankin, R. L. Seaman, A. Serrano, F. C. Shelly,
    K. W. Wierzchos.  1.0-m prime focus + CCD.

Orbital elements:
2022 MS1                                                 Earth MOID = 0.1055 AU
Epoch 2022 Aug. 9.0 TT = JDT 2459800.5                  Bell                    
M  65.72735              (2000.0)            P               Q                  
n   0.57465152     Peri.  302.32558     -0.82013137     -0.54437817             
a   1.4328465      Node   206.03047     +0.55768501     -0.82938192             
e   0.6549907      Incl.   23.66844     -0.12795297     -0.12561065             
P   1.72           H   21.06          G   0.15           U   9                  
Residuals in seconds of arc
220620 G96  0.1-  0.1+    220621 H21  0.2-  0.0     220623 H21  0.1-  0.1-
220620 G96  0.0   0.1-    220621 H21  0.5-  0.2-    220623 H21  0.4+  0.1+
220620 G96  0.2-  0.3+    220621 H21  0.2+  0.1-    220623 H21  0.0   0.4+
220620 G96  0.6+  0.2+    220621 I52  0.2+  0.2-    220623 I52  0.0   0.2-
220620 I52  0.1-  0.3+    220621 I52  0.1+  0.4+    220623 I52  0.1-  0.0
220620 I52  0.2+  0.1-    220621 I52  0.3+  0.9+
220620 I52  0.1-  0.3-    220621 I52  0.2-  0.5-

Ephemeris:
2022 MS1                 a,e,i = 1.43, 0.65, 24                  q = 0.4943
Date    TT    R. A. (2000) Decl.     Delta      r    Elong.  Phase     V
2022 05 26    05 06 33.1 +70 10 33   0.2805  0.8594    49.9   115.7    22.5
...
2022 06 10    15 49 37.5 +70 49 06   0.3347  1.0415    85.1    76.2    21.4
...
2022 06 18    16 07 55.2 +57 25 51   0.3988  1.1337    96.7    62.9    21.6
...
2022 06 24    16 13 56.0 +49 40 40   0.4549  1.2002   102.5    55.8    21.8
2022 06 25    16 14 44.6 +48 31 48   0.4648  1.2111   103.3    54.8    21.8
2022 06 26    16 15 31.4 +47 25 05   0.4748  1.2219   104.0    53.8    21.8
...
2022 07 02    16 19 51.1 +41 23 29   0.5375  1.2852   107.5    49.0    22.1
...
2022 07 10    16 25 28.2 +34 42 24   0.6272  1.3661   110.1    44.3    22.4
...
2022 07 25    16 37 18.4 +24 56 25   0.8122  1.5068   110.5    39.1    23.1

M. P. C. Staff               (C) Copyright 2022 MPC           M.P.E.C. 2022-M67




More information about the Iaude mailing list